| time (UTC) | temp F | wind direction | speed MPH | gust MPH | rain 1hr in | rain 24hr in | rain mn in | humidity % | barometer mb |
| 20260505054549 | 70 | 110 | 2.0 | 13.0 | 0.00 | 0.00 | 0.00 | 70 | 1001.9 |
| 20260505054040 | 70 | 93 | 3.0 | 13.0 | 0.00 | 0.00 | 0.00 | 70 | 1001.8 |
| 20260505053539 | 70 | 160 | 5.0 | 15.0 | 0.00 | 0.00 | 0.00 | 70 | 1001.5 |
| 20260505053052 | 70 | 140 | 7.0 | 17.0 | 0.00 | 0.00 | 0.00 | 69 | 1001.5 |
| 20260505052539 | 70 | 175 | 9.0 | 17.0 | 0.00 | 0.00 | 0.00 | 69 | 1001.4 |
| 20260505052040 | 70 | 140 | 9.0 | 17.0 | 0.00 | 0.00 | 0.00 | 68 | 1001.3 |
| 20260505051549 | 70 | 153 | 8.0 | 18.0 | 0.00 | 0.00 | 0.00 | 68 | 1001.2 |
| 20260505051041 | 70 | 164 | 9.0 | 18.0 | 0.00 | 0.00 | 0.00 | 69 | 1001.3 |
| 20260505050541 | 70 | 126 | 6.0 | 15.0 | 0.00 | 0.00 | 0.00 | 71 | 1001.3 |
| 20260505041548 | 70 | 51 | 3.0 | 7.0 | 0.00 | 0.00 | 0.00 | 73 | 1001.2 |
| 20260505041040 | 71 | 93 | 3.0 | 7.0 | 0.00 | 0.00 | 0.00 | 72 | 1001.2 |
| 20260505040540 | 71 | 121 | 2.0 | 7.0 | 0.00 | 0.00 | 0.00 | 72 | 1001.1 |
| 20260505040051 | 71 | 108 | 3.0 | 10.0 | 0.00 | 0.00 | 0.00 | 71 | 1001.1 |
| 20260505035540 | 72 | 68 | 3.0 | 11.0 | 0.00 | 0.00 | 0.00 | 71 | 1001.1 |
| 20260505035042 | 72 | 178 | 5.0 | 12.0 | 0.00 | 0.00 | 0.00 | 70 | 1001.1 |
| 20260505034549 | 72 | 169 | 6.0 | 12.0 | 0.00 | 0.00 | 0.00 | 69 | 1001.0 |
| 20260505034040 | 72 | 225 | 6.0 | 12.0 | 0.00 | 0.00 | 0.00 | 68 | 1001.0 |
| 20260505033540 | 72 | 130 | 5.0 | 11.0 | 0.00 | 0.00 | 0.00 | 67 | 1001.0 |
| 20260505033052 | 73 | 163 | 5.0 | 10.0 | 0.00 | 0.00 | 0.00 | 67 | 1001.1 |
| 20260505032540 | 73 | 221 | 4.0 | 10.0 | 0.00 | 0.00 | 0.00 | 66 | 1001.3 |
| 20260505032039 | 73 | 247 | 3.0 | 12.0 | 0.00 | 0.00 | 0.00 | 66 | 1001.5 |
| 20260505031552 | 73 | 227 | 6.0 | 14.0 | 0.00 | 0.00 | 0.00 | 66 | 1001.4 |
| 20260505031041 | 73 | 217 | 6.0 | 14.0 | 0.00 | 0.00 | 0.00 | 65 | 1001.6 |
| 20260505030542 | 73 | 147 | 9.0 | 16.0 | 0.00 | 0.00 | 0.00 | 65 | 1001.3 |
| 20260505030049 | 73 | 146 | 10.0 | 16.0 | 0.00 | 0.00 | 0.00 | 65 | 1001.3 |
| 20260505025541 | 73 | 148 | 7.0 | 12.0 | 0.00 | 0.00 | 0.00 | 65 | 1001.4 |
| 20260505025041 | 73 | 141 | 7.0 | 12.0 | 0.00 | 0.00 | 0.00 | 65 | 1001.4 |
| 20260505024552 | 73 | 144 | 7.0 | 11.0 | 0.00 | 0.00 | 0.00 | 64 | 1001.6 |
| 20260505024040 | 74 | 140 | 6.0 | 11.0 | 0.00 | 0.00 | 0.00 | 64 | 1001.5 |
| 20260505023540 | 74 | 78 | 3.0 | 7.0 | 0.00 | 0.00 | 0.00 | 63 | 1001.4 |
| 20260505023054 | 74 | 98 | 3.0 | 7.0 | 0.00 | 0.00 | 0.00 | 63 | 1001.4 |
| 20260505022540 | 74 | 115 | 3.0 | 7.0 | 0.00 | 0.00 | 0.00 | 62 | 1001.5 |
| 20260505022043 | 74 | 51 | 3.0 | 7.0 | 0.00 | 0.00 | 0.00 | 62 | 1001.6 |
| 20260505021545 | 74 | 123 | 2.0 | 10.0 | 0.00 | 0.00 | 0.00 | 61 | 1001.7 |
| 20260505021039 | 74 | 100 | 6.0 | 11.0 | 0.00 | 0.00 | 0.00 | 61 | 1001.5 |
| 20260505020539 | 74 | 153 | 5.0 | 12.0 | 0.00 | 0.00 | 0.00 | 61 | 1001.8 |
| 20260505020048 | 75 | 155 | 5.0 | 12.0 | 0.00 | 0.00 | 0.00 | 60 | 1001.8 |
| 20260505015540 | 75 | 207 | 5.0 | 10.0 | 0.00 | 0.00 | 0.00 | 60 | 1001.7 |
| 20260505015040 | 75 | 217 | 4.0 | 11.0 | 0.00 | 0.00 | 0.00 | 59 | 1001.6 |
| 20260505014550 | 75 | 153 | 5.0 | 14.0 | 0.00 | 0.00 | 0.00 | 58 | 1001.4 |
| 20260505014040 | 75 | 131 | 6.0 | 14.0 | 0.00 | 0.00 | 0.00 | 58 | 1001.2 |
| 20260505013539 | 75 | 142 | 6.0 | 11.0 | 0.00 | 0.00 | 0.00 | 57 | 1001.2 |
| 20260505013042 | 75 | 137 | 5.0 | 12.0 | 0.00 | 0.00 | 0.00 | 57 | 1001.2 |
| 20260505012539 | 76 | 139 | 6.0 | 12.0 | 0.00 | 0.00 | 0.00 | 57 | 1001.2 |
| 20260505012040 | 76 | 214 | 6.0 | 13.0 | 0.00 | 0.00 | 0.00 | 56 | 1001.2 |
| 20260505011543 | 76 | 160 | 7.0 | 13.0 | 0.00 | 0.00 | 0.00 | 55 | 1001.0 |
| 20260505011040 | 76 | 140 | 7.0 | 14.0 | 0.00 | 0.00 | 0.00 | 55 | 1000.9 |
| 20260505010540 | 76 | 126 | 6.0 | 14.0 | 0.00 | 0.00 | 0.00 | 54 | 1001.0 |
| 20260505010104 | 77 | 150 | 7.0 | 14.0 | 0.00 | 0.00 | 0.00 | 54 | 1001.0 |
| 20260505005543 | 77 | 146 | 7.0 | 15.0 | 0.00 | 0.00 | 0.00 | 53 | 1000.8 |
| 20260505005040 | 77 | 147 | 7.0 | 15.0 | 0.00 | 0.00 | 0.00 | 53 | 1000.8 |
| 20260505004546 | 77 | 155 | 9.0 | 15.0 | 0.00 | 0.00 | 0.00 | 53 | 1001.0 |
| 20260505004039 | 78 | 144 | 7.0 | 14.0 | 0.00 | 0.00 | 0.00 | 52 | 1000.7 |
| 20260505003539 | 78 | 141 | 6.0 | 14.0 | 0.00 | 0.00 | 0.00 | 51 | 1000.9 |
| 20260505003047 | 78 | 141 | 7.0 | 14.0 | 0.00 | 0.00 | 0.00 | 50 | 1000.9 |
| 20260505002539 | 78 | 139 | 5.0 | 13.0 | 0.00 | 0.00 | 0.00 | 50 | 1000.9 |
| 20260505002039 | 78 | 213 | 5.0 | 13.0 | 0.00 | 0.00 | 0.00 | 50 | 1000.9 |
| 20260505001548 | 79 | 195 | 5.0 | 13.0 | 0.00 | 0.00 | 0.00 | 49 | 1001.0 |
| 20260505001039 | 79 | 142 | 8.0 | 13.0 | 0.00 | 0.00 | 0.00 | 49 | 1000.9 |
| 20260505000539 | 79 | 173 | 6.0 | 16.0 | 0.00 | 0.00 | 0.00 | 49 | 1000.9 |
| 20260505000048 | 79 | 171 | 5.0 | 16.0 | 0.00 | 0.00 | 0.00 | 48 | 1000.9 |
| 20260504235540 | 79 | 178 | 5.0 | 12.0 | 0.00 | 0.00 | 0.00 | 48 | 1001.0 |
| 20260504235043 | 79 | 142 | 4.0 | 11.0 | 0.00 | 0.00 | 0.00 | 48 | 1001.1 |
| 20260504234548 | 79 | 175 | 4.0 | 12.0 | 0.00 | 0.00 | 0.00 | 48 | 1001.2 |
| 20260504234040 | 79 | 173 | 6.0 | 13.0 | 0.00 | 0.00 | 0.00 | 47 | 1001.1 |
| 20260504233540 | 80 | 207 | 5.0 | 13.0 | 0.00 | 0.00 | 0.00 | 47 | 1001.1 |
| 20260504233045 | 80 | 150 | 6.0 | 11.0 | 0.00 | 0.00 | 0.00 | 47 | 1001.2 |
| 20260504232540 | 80 | 150 | 6.0 | 11.0 | 0.00 | 0.00 | 0.00 | 46 | 1001.1 |
| 20260504232039 | 80 | 156 | 5.0 | 16.0 | 0.00 | 0.00 | 0.00 | 47 | 1001.2 |
| 20260504231547 | 81 | 182 | 5.0 | 17.0 | 0.00 | 0.00 | 0.00 | 46 | 1001.2 |
| 20260504231039 | 81 | 178 | 7.0 | 17.0 | 0.00 | 0.00 | 0.00 | 45 | 1001.2 |
| 20260504230542 | 81 | 178 | 4.0 | 10.0 | 0.00 | 0.00 | 0.00 | 45 | 1001.2 |
| 20260504230047 | 81 | 178 | 4.0 | 12.0 | 0.00 | 0.00 | 0.00 | 44 | 1001.1 |
| 20260504225540 | 81 | 187 | 5.0 | 14.0 | 0.00 | 0.00 | 0.00 | 44 | 1001.1 |
| 20260504225039 | 81 | 182 | 6.0 | 14.0 | 0.00 | 0.00 | 0.00 | 44 | 1001.2 |
| 20260504224545 | 82 | 178 | 5.0 | 12.0 | 0.00 | 0.00 | 0.00 | 44 | 1001.2 |
| 20260504224039 | 82 | 173 | 5.0 | 16.0 | 0.00 | 0.00 | 0.00 | 44 | 1001.2 |
| 20260504223544 | 82 | 182 | 4.0 | 16.0 | 0.00 | 0.00 | 0.00 | 44 | 1001.2 |
| 20260504223059 | 82 | 158 | 8.0 | 17.0 | 0.00 | 0.00 | 0.00 | 43 | 1001.2 |
| 20260504222540 | 83 | 203 | 5.0 | 21.0 | 0.00 | 0.00 | 0.00 | 43 | 1001.2 |
| 20260504222039 | 83 | 178 | 8.0 | 21.0 | 0.00 | 0.00 | 0.00 | 42 | 1001.2 |
| 20260504221559 | 83 | 183 | 7.0 | 22.0 | 0.00 | 0.00 | 0.00 | 43 | 1001.3 |
| 20260504221040 | 83 | 239 | 6.0 | 22.0 | 0.00 | 0.00 | 0.00 | 42 | 1001.2 |
| 20260504220540 | 83 | 183 | 9.0 | 21.0 | 0.00 | 0.00 | 0.00 | 41 | 1001.3 |
| 20260504220046 | 83 | 183 | 6.0 | 19.0 | 0.00 | 0.00 | 0.00 | 41 | 1001.3 |
| 20260504215541 | 84 | 193 | 9.0 | 19.0 | 0.00 | 0.00 | 0.00 | 41 | 1001.4 |
| 20260504215043 | 84 | 178 | 9.0 | 20.0 | 0.00 | 0.00 | 0.00 | 41 | 1001.4 |
| 20260504214543 | 84 | 178 | 5.0 | 20.0 | 0.00 | 0.00 | 0.00 | 41 | 1001.4 |
| 20260504214041 | 84 | 183 | 6.0 | 27.0 | 0.00 | 0.00 | 0.00 | 41 | 1001.5 |
| 20260504213540 | 84 | 177 | 6.0 | 27.0 | 0.00 | 0.00 | 0.00 | 41 | 1001.4 |
| 20260504213102 | 84 | 185 | 8.0 | 26.0 | 0.00 | 0.00 | 0.00 | 41 | 1001.4 |
| 20260504212540 | 84 | 178 | 16.0 | 26.0 | 0.00 | 0.00 | 0.00 | 39 | 1001.5 |
| 20260504212042 | 84 | 178 | 9.0 | 23.0 | 0.00 | 0.00 | 0.00 | 41 | 1001.5 |
| 20260504211549 | 84 | 144 | 10.0 | 23.0 | 0.00 | 0.00 | 0.00 | 40 | 1001.6 |
| 20260504211040 | 84 | 182 | 11.0 | 22.0 | 0.00 | 0.00 | 0.00 | 38 | 1001.5 |
| 20260504210540 | 85 | 186 | 5.0 | 22.0 | 0.00 | 0.00 | 0.00 | 40 | 1001.7 |
| 20260504210049 | 85 | 178 | 7.0 | 22.0 | 0.00 | 0.00 | 0.00 | 38 | 1001.7 |
| 20260504205542 | 85 | 212 | 3.0 | 20.0 | 0.00 | 0.00 | 0.00 | 41 | 1001.8 |
| 20260504205039 | 85 | 175 | 5.0 | 20.0 | 0.00 | 0.00 | 0.00 | 39 | 1001.9 |
| 20260504204542 | 86 | 182 | 6.0 | 18.0 | 0.00 | 0.00 | 0.00 | 38 | 1001.9 |
| 20260504204039 | 86 | 93 | 6.0 | 19.0 | 0.00 | 0.00 | 0.00 | 38 | 1002.0 |
| 20260504203540 | 86 | 235 | 6.0 | 19.0 | 0.00 | 0.00 | 0.00 | 38 | 1001.9 |
| 20260504203050 | 86 | 137 | 8.0 | 19.0 | 0.00 | 0.00 | 0.00 | 36 | 1002.0 |
| 20260504202540 | 86 | 178 | 6.0 | 19.0 | 0.00 | 0.00 | 0.00 | 37 | 1001.9 |
| 20260504202041 | 86 | 185 | 3.0 | 20.0 | 0.00 | 0.00 | 0.00 | 39 | 1001.9 |
| 20260504201546 | 86 | 291 | 4.0 | 21.0 | 0.00 | 0.00 | 0.00 | 38 | 1002.1 |
| 20260504201043 | 86 | 182 | 13.0 | 21.0 | 0.00 | 0.00 | 0.00 | 36 | 1002.2 |
| 20260504200540 | 86 | 177 | 8.0 | 16.0 | 0.00 | 0.00 | 0.00 | 37 | 1002.1 |
| 20260504200049 | 86 | 0 | 8.0 | 16.0 | 0.00 | 0.00 | 0.00 | 37 | 1002.2 |
| 20260504195539 | 86 | 182 | 5.0 | 21.0 | 0.00 | 0.00 | 0.00 | 36 | 1002.3 |
| 20260504195040 | 86 | 185 | 4.0 | 21.0 | 0.00 | 0.00 | 0.00 | 38 | 1002.4 |
| 20260504194551 | 86 | 180 | 7.0 | 17.0 | 0.00 | 0.00 | 0.00 | 36 | 1002.5 |
| 20260504194040 | 86 | 178 | 4.0 | 15.0 | 0.00 | 0.00 | 0.00 | 37 | 1002.5 |
| 20260504193542 | 86 | 178 | 2.0 | 8.0 | 0.00 | 0.00 | 0.00 | 36 | 1002.5 |
| 20260504193050 | 86 | 187 | 1.0 | 13.0 | 0.00 | 0.00 | 0.00 | 37 | 1002.6 |
| 20260504192539 | 86 | 271 | 3.0 | 14.0 | 0.00 | 0.00 | 0.00 | 36 | 1002.7 |
| 20260504192042 | 85 | 178 | 5.0 | 14.0 | 0.00 | 0.00 | 0.00 | 39 | 1002.8 |
| 20260504191549 | 85 | 178 | 4.0 | 11.0 | 0.00 | 0.00 | 0.00 | 36 | 1002.7 |
| 20260504191040 | 84 | 182 | 4.0 | 14.0 | 0.00 | 0.00 | 0.00 | 39 | 1002.7 |
| 20260504190541 | 84 | 168 | 2.0 | 14.0 | 0.00 | 0.00 | 0.00 | 36 | 1002.8 |
| 20260504190053 | 84 | 178 | 2.0 | 14.0 | 0.00 | 0.00 | 0.00 | 38 | 1002.7 |
| 20260504185541 | 84 | 250 | 4.0 | 14.0 | 0.00 | 0.00 | 0.00 | 38 | 1003.0 |
| 20260504185041 | 84 | 178 | 2.0 | 12.0 | 0.00 | 0.00 | 0.00 | 41 | 1003.0 |
| 20260504184548 | 84 | 178 | 4.0 | 13.0 | 0.00 | 0.00 | 0.00 | 40 | 1003.0 |
| 20260504184041 | 84 | 232 | 6.0 | 15.0 | 0.00 | 0.00 | 0.00 | 39 | 1003.0 |
| 20260504183540 | 83 | 178 | 3.0 | 15.0 | 0.00 | 0.00 | 0.00 | 39 | 1003.0 |
| 20260504183050 | 83 | 182 | 7.0 | 15.0 | 0.00 | 0.00 | 0.00 | 40 | 1003.1 |
| 20260504182540 | 82 | 186 | 2.0 | 7.0 | 0.00 | 0.00 | 0.00 | 38 | 1003.2 |
| 20260504182040 | 82 | 196 | 3.0 | 17.0 | 0.00 | 0.00 | 0.00 | 39 | 1003.2 |
| 20260504181550 | 83 | 292 | 5.0 | 17.0 | 0.00 | 0.00 | 0.00 | 43 | 1003.3 |
| 20260504181042 | 82 | 185 | 3.0 | 16.0 | 0.00 | 0.00 | 0.00 | 41 | 1003.6 |
| 20260504180542 | 82 | 183 | 3.0 | 16.0 | 0.00 | 0.00 | 0.00 | 39 | 1003.6 |
| 20260504180051 | 82 | 183 | 5.0 | 18.0 | 0.00 | 0.00 | 0.00 | 40 | 1003.6 |
| 20260504175541 | 82 | 282 | 4.0 | 18.0 | 0.00 | 0.00 | 0.00 | 43 | 1003.8 |
| 20260504175041 | 81 | 182 | 5.0 | 17.0 | 0.00 | 0.00 | 0.00 | 41 | 1003.7 |
| 20260504174549 | 81 | 309 | 3.0 | 9.0 | 0.00 | 0.00 | 0.00 | 44 | 1003.7 |
| 20260504174041 | 80 | 0 | 3.0 | 12.0 | 0.00 | 0.00 | 0.00 | 41 | 1003.9 |
| 20260504173540 | 80 | 183 | 3.0 | 16.0 | 0.00 | 0.00 | 0.00 | 41 | 1003.9 |
| 20260504173049 | 81 | 219 | 5.0 | 16.0 | 0.00 | 0.00 | 0.00 | 41 | 1003.9 |
| 20260504172540 | 80 | 187 | 3.0 | 13.0 | 0.00 | 0.00 | 0.00 | 42 | 1003.9 |
| 20260504172041 | 80 | 200 | 2.0 | 12.0 | 0.00 | 0.00 | 0.00 | 44 | 1003.9 |
| 20260504171545 | 79 | 273 | 3.0 | 9.0 | 0.00 | 0.00 | 0.00 | 45 | 1003.9 |
| 20260504171041 | 79 | 184 | 4.0 | 11.0 | 0.00 | 0.00 | 0.00 | 44 | 1003.9 |
| 20260504170544 | 78 | 215 | 4.0 | 15.0 | 0.00 | 0.00 | 0.00 | 43 | 1003.9 |
| 20260504151039 | 71 | 198 | 5.0 | 13.0 | 0.00 | 0.00 | 0.00 | 53 | 1004.4 |
| 20260504150539 | 70 | 163 | 6.0 | 13.0 | 0.00 | 0.00 | 0.00 | 54 | 1004.4 |
| 20260504150108 | 70 | 288 | 3.0 | 11.0 | 0.00 | 0.00 | 0.00 | 54 | 1004.5 |
| 20260504141039 | 67 | 287 | 4.0 | 13.0 | 0.00 | 0.00 | 0.00 | 56 | 1004.7 |
| 20260504140539 | 66 | 207 | 6.0 | 13.0 | 0.00 | 0.00 | 0.00 | 56 | 1004.7 |
| 20260504130539 | 63 | 153 | 5.0 | 12.0 | 0.00 | 0.00 | 0.00 | 60 | 1004.7 |
| 20260504110542 | 62 | 257 | 2.0 | 9.0 | 0.00 | 0.00 | 0.00 | 57 | 1004.9 |
| 20260504100540 | 63 | 164 | 4.0 | 17.0 | 0.00 | 0.00 | 0.00 | 54 | 1005.4 |
| 20260504081552 | 66 | 196 | 4.0 | 14.0 | 0.00 | 0.00 | 0.00 | 49 | 1006.2 |
| 20260504081041 | 66 | 153 | 4.0 | 14.0 | 0.00 | 0.00 | 0.00 | 49 | 1006.3 |
| 20260504080541 | 66 | 195 | 5.0 | 17.0 | 0.00 | 0.00 | 0.00 | 49 | 1006.4 |
| 20260504080110 | 66 | 214 | 5.0 | 17.0 | 0.00 | 0.00 | 0.00 | 49 | 1006.4 |